User: anonymous   Login
Location: Oronoko Observatory
(41.9167°N, 86.3833°W)
Time: 00:37:42
(UTC-04:00)
Language:

PAYLOAD A - Orbit

View from above orbital plane
View from above orbital plane
View from above satellite
View from above satellite

Ground track
Ground track

The orbit data is extracted from the following two-line orbital elements,

1 27840U 03031A   18111.56802465 -.00000015 +00000-0 +91803-5 0  9999
2 27840 098.2297 101.1471 0096949 269.7327 089.2752 14.38901439777565
Epoch (UTC): 21 April 2018 13:37:57
Eccentricity: 0.0096949
inclination: 98.2297°
perigee height: 693 km
apogee height: 831 km
right ascension of ascending node: 101.1471°
argument of perigee: 269.7327°
revolutions per day: 14.38901439
mean anomaly at epoch: 89.2752°
orbit number at epoch: 77756

The dashed part of the orbit path shows where the satellite is in the earth's shadow,  

DLR